User: anonymous   Login
Location: eljas
(40.1958°N, 6.8661°W)
Time: 03:58:29
(UTC+01:00)
Language:

Okean O Rocket - Orbit

View from above orbital plane
View from above orbital plane
View from above satellite
View from above satellite

Ground track
Ground track

The orbit data is extracted from the following two-line orbital elements,

1 25861U 99039B   17022.99094014  .00000031  00000-0  11561-4 0  9992
2 25861  98.0856 353.4914 0015532 184.3358 219.8591 14.78381534944328
Epoch (UTC): 22 January 2017 23:46:57
Eccentricity: 0.0015532
inclination: 98.0856°
perigee height: 623 km
apogee height: 645 km
right ascension of ascending node: 353.4914°
argument of perigee: 184.3358°
revolutions per day: 14.78381534
mean anomaly at epoch: 219.8591°
orbit number at epoch: 94432

The dashed part of the orbit path shows where the satellite is in the earth's shadow,  

DLR